Regional Weather Roundup
Issued by NWS Kansas City/Pleasant Hill, MO

Home | Current Version | Previous Version | Graphics & Text | Print | Product List | Glossary Off
Versions: 1 2 3 4 5 6 7 8 9 10 11 12 13 14 15 16 17 18 19 20 21 22 23 24 25 26 27 28 29 30 31 32 33 34 35 36 37 38 39 40 41 42 43 44 45 46 47 48 49 50

000
ASUS43 KEAX 201904
RWREAX

WEATHER ROUNDUP FOR EASTERN KANSAS AND NORTHWEST MISSOURI
NATIONAL WEATHER SERVICE KANSAS CITY/PLEASANT HILL MO
200 PM CDT SAT SEP 20 2014

KSZ040-057-103>105-MOZ028-029-037-043-202000-
...KANSAS CITY METROPOLITAN AREA...

CITY           SKY/WX    TMP DP  RH WIND       PRES   REMARKS
K.C. INTL      CLOUDY    79  70  74 SW12      29.94F
K.C. DOWNTOWN  LGT RAIN  83  69  62 SW13G24   29.92F
LEES SUMMIT    MOSUNNY   83  69  62 SW21      29.94F
OLATHE - IXD   MOSUNNY   84  71  65 SW13      29.98F
OLATHE - OJC   MOSUNNY   83  69  62 SW12      29.97F
LAWRENCE       MOSUNNY   84  68  58 SW13      29.96F

$$

MOZ001>008-011>017-020>025-030>033-038>040-044>046-053-054-202000-
...NORTHERN AND CENTRAL MISSOURI...

CITY           SKY/WX    TMP DP  RH WIND       PRES   REMARKS
ST. JOSEPH     CLOUDY    77  70  79 SW9       29.91F
MOSBY          CLOUDY    79  70  73 SW9       29.92F
WHITEMAN AFB   MOSUNNY   83  71  66 SW17      29.94F
CLINTON        MOSUNNY   82  73  74 SW15      29.99F
SEDALIA        MOSUNNY   84  69  60 SW17G24   29.95F
WARSAW         NOT AVBL
MARSHALL       PTSUNNY   86  72  62 SW16      29.92F HX  92
CHILLICOTHE      N/A     80  71  74 VRB3      29.93S
MOBERLY        CLOUDY    82  66  57 SW9G16    29.95F
KIRKSVILLE     CLOUDY    77  69  76 W13       29.95F

$$

MOZ041-047>049-056>058-063>065-088>090-097-202000-
...EASTERN AND SOUTHERN MISSOURI...

CITY           SKY/WX    TMP DP  RH WIND       PRES   REMARKS
ST. LOUIS INTL CLOUDY    85  69  58 SW13      29.97F
SPIRIT OF STL  PTSUNNY   84  70  62 SW10G16   29.95F
COLUMBIA       PTSUNNY   84  68  58 SW21      29.95F
JEFFERSON CITY MOSUNNY   86  67  52 SW12G21   29.94F
MEXICO         PTSUNNY   84  73  70 SW12G17   29.94F HX  91
ROLLA          MOSUNNY   83  67  58 SW12      30.00F
LEBANON        MOSUNNY   84  66  54 W10G16    30.04F
OSAGE BEACH    PTSUNNY   82  68  61 SW9       30.01F
SPRINGFIELD    MOSUNNY   84  68  58 SW12      30.03F
BRANSON        PTSUNNY   84  68  58 W5        30.06F
NEVADA         MOSUNNY   81  72  74 SW10      30.02F
JOPLIN         PTSUNNY   81  71  71 SW10      30.03F
WEST PLAINS    MOSUNNY   83  67  58 W9        30.05F

$$

IAZ060-094-KSZ022-034>040-054-083-096-NEZ052-066-093-202000-
...KANSAS...SOUTHEAST NEBRASKA AND IOWA...

CITY           SKY/WX    TMP DP  RH WIND       PRES   REMARKS
TOPEKA         MOSUNNY   87  69  54 SW7       29.96S HX  91
MANHATTAN      SUNNY     90  67  46 SW14      29.95F HX  93
EMPORIA        PTSUNNY   86  69  56 S16       29.98F HX  90
CHANUTE        PTSUNNY   81  72  74 S13       30.01F
WICHITA        MOSUNNY   91  63  39 S10G21    29.96F HX  92
OMAHA          MOSUNNY   82  67  60 SW8       29.92S
LINCOLN        SUNNY     86  62  44 CALM      29.96R
FALLS CITY     PTSUNNY   75  72  90 W10       29.94R
LAMONI         PTSUNNY   76  68  76 W12       29.93S
DES MOINES     MOSUNNY   82  65  56 W13       29.87R

$$



USA.gov is the U.S. government's official web portal to all federal, state and local government web resources and services.